{"data":{"norad_id":56492,"epoch":"2026-05-24T15:58:48.398016Z","epoch_age_seconds":100450,"freshness":"FRESH","line1":"1 56492U 23064AW  26144.66583794  .00000607  00000+0  58678-4 0  9996","line2":"2 56492  69.9987 272.8624 0002518 272.9895  87.0976 14.98321994167613","mean_motion":14.98321994,"eccentricity":0.0002518,"inclination_deg":69.9987,"raan_deg":272.8624,"arg_perigee_deg":272.9895,"mean_anomaly_deg":87.0976,"bstar":5.8678e-5,"rev_number":16761,"period_min":96.107512655254,"perigee_km":570.33058414523,"apogee_km":573.83071375325,"semimajor_km":6950.2176489492,"source":"CELESTRAK","updated_at":"2026-05-25T13:38:18.075747Z"}}